EW9733 Weather Reports


Display with metric or nautical units.
time (UTC)temp
F
wind
direction
speed
MPH
gust
MPH
rain 1hr
in
rain 24hr
in
rain mn
in
humidity
%
barometer
mb
20260506221604 59 239 4.0 11.0 0.00 0.01 0.01 88 1005.9
20260506220050 59 146 4.0 17.0 0.00 0.01 0.01 88 1006.1
20260506214554 59 204 3.0 17.0 0.00 0.01 0.01 88 1006.0
20260506213048 59 192 4.0 12.0 0.00 0.01 0.01 87 1006.0
20260506211546 59 140 4.0 16.0 0.00 0.01 0.01 87 1006.2
20260506210054 60 217 5.0 14.0 0.01 0.01 0.01 86 1006.3
20260506204547 60 144 3.0 18.0 0.01 0.01 0.01 86 1006.4
20260506203042 60 176 4.0 9.0 0.01 0.01 0.01 85 1006.4
20260506201541 61 197 1.0 14.0 0.01 0.01 0.01 84 1006.5
20260506200040 62 202 3.0 8.0 0.00 0.00 0.00 81 1006.5
20260506194540 62 140 4.0 8.0 0.00 0.00 0.00 79 1006.8
20260506193044 63 229 5.0 16.0 0.00 0.00 0.00 75 1006.7
20260506191539 64 202 7.0 21.0 0.00 0.00 0.00 74 1006.8
20260506190039 64 217 7.0 19.0 0.00 0.00 0.00 73 1006.5
20260506184543 64 221 6.0 18.0 0.00 0.00 0.00 72 1006.8
20260506183036 65 208 7.0 13.0 0.00 0.00 0.00 71 1006.8
20260506181540 66 189 7.0 22.0 0.00 0.00 0.00 71 1006.9
20260506180034 66 197 7.0 19.0 0.00 0.00 0.00 69 1007.5
20260506174633 67 192 5.0 24.0 0.00 0.00 0.00 69 1007.6
20260506173031 68 203 7.0 17.0 0.00 0.00 0.00 67 1007.8
20260506171534 67 296 4.0 23.0 0.00 0.00 0.00 69 1007.4
20260506170030 67 180 6.0 13.0 0.00 0.00 0.00 67 1007.8
20260506164543 68 186 3.0 12.0 0.00 0.00 0.00 68 1007.8
20260506163025 67 192 4.0 21.0 0.00 0.00 0.00 68 1008.0
20260506161524 68 161 5.0 20.0 0.00 0.00 0.00 67 1008.4
20260506160023 68 157 5.0 14.0 0.00 0.00 0.00 67 1008.5
20260506154521 68 186 5.0 21.0 0.00 0.00 0.00 67 1008.7
20260506153021 68 219 2.0 13.0 0.00 0.00 0.00 67 1009.0
20260506151520 68 175 5.0 13.0 0.00 0.00 0.00 67 1009.0
20260506150017 69 207 4.0 16.0 0.00 0.00 0.00 67 1009.0
20260506144523 68 217 5.0 20.0 0.00 0.00 0.00 66 1008.8
20260506143012 68 214 6.0 16.0 0.00 0.00 0.00 68 1008.7
20260506141522 67 204 6.0 11.0 0.00 0.00 0.00 68 1008.7
20260506140005 67 207 5.0 12.0 0.00 0.00 0.00 69 1008.9
20260506134500 66 188 4.0 16.0 0.00 0.00 0.00 71 1009.4
20260506133109 65 174 6.0 16.0 0.00 0.00 0.00 74 1009.6
20260506131614 64 209 4.0 15.0 0.00 0.00 0.00 76 1009.5
20260506130049 62 191 4.0 17.0 0.00 0.00 0.00 78 1009.7
20260506124546 61 216 5.0 19.0 0.00 0.00 0.00 80 1009.4
20260506123044 61 156 5.0 16.0 0.00 0.00 0.00 81 1009.2
20260506121545 60 146 6.0 16.0 0.00 0.00 0.00 82 1009.7
20260506120056 60 200 5.0 15.0 0.00 0.00 0.00 83 1009.8
20260506114537 59 180 3.0 17.0 0.00 0.00 0.00 85 1009.9
20260506113035 59 159 4.0 14.0 0.00 0.00 0.00 85 1009.9
20260506111536 58 219 4.0 10.0 0.00 0.00 0.00 86 1009.9
20260506110034 58 169 5.0 16.0 0.00 0.00 0.00 86 1009.9
20260506104631 58 207 3.0 14.0 0.00 0.00 0.00 86 1010.0
20260506103037 58 203 3.0 8.0 0.00 0.00 0.00 86 1009.9
20260506101521 58 196 4.0 9.0 0.00 0.00 0.00 86 1009.7
20260506100019 58 137 3.0 10.0 0.00 0.00 0.00 86 1009.7
20260506094515 58 176 5.0 15.0 0.00 0.00 0.00 86 1009.7
20260506093019 58 153 4.0 10.0 0.00 0.00 0.00 85 1009.5
20260506091510 58 200 5.0 8.0 0.00 0.00 0.00 85 1009.6
20260506090008 58 203 4.0 14.0 0.00 0.00 0.00 85 1009.6
20260506084509 58 204 2.0 12.0 0.00 0.00 0.00 85 1009.8
20260506083006 58 252 3.0 21.0 0.00 0.00 0.00 84 1009.8
20260506081504 58 205 5.0 16.0 0.00 0.00 0.00 84 1009.7
20260506073100 58 134 4.0 14.0 0.00 0.00 0.00 83 1009.7
20260506071559 58 206 2.0 10.0 0.00 0.00 0.00 82 1009.5
20260506061552 59 196 4.0 16.0 0.00 0.00 0.00 80 1009.4
20260506044538 59 268 4.0 14.0 0.00 0.00 0.00 76 1010.0
20260506043031 59 205 7.0 17.0 0.00 0.00 0.00 75 1010.0
20260506041528 59 194 3.0 10.0 0.00 0.00 0.00 74 1009.9
20260506040027 59 150 6.0 16.0 0.00 0.00 0.00 73 1009.9
20260506034522 59 173 4.0 17.0 0.00 0.00 0.00 72 1009.8
20260506033021 59 286 4.0 12.0 0.00 0.00 0.00 72 1009.6
20260506031520 59 162 3.0 15.0 0.00 0.00 0.00 71 1009.6
20260506030021 59 202 4.0 13.0 0.00 0.00 0.00 71 1009.4
20260506024520 59 168 5.0 15.0 0.00 0.00 0.00 71 1009.5
20260506023034 59 247 7.0 17.0 0.00 0.00 0.00 71 1009.4
20260506021531 60 200 4.0 20.0 0.00 0.00 0.00 71 1009.3
20260506020017 60 180 5.0 16.0 0.00 0.00 0.00 71 1009.4
20260506014619 60 211 4.0 11.0 0.00 0.00 0.00 71 1009.5
20260506013019 60 224 3.0 17.0 0.00 0.00 0.00 70 1009.4
20260506011515 60 188 3.0 11.0 0.00 0.00 0.00 71 1009.1
20260506010015 60 165 5.0 13.0 0.00 0.00 0.00 71 1009.1
20260506004515 60 198 3.0 10.0 0.00 0.00 0.00 71 1008.9
20260506003015 60 186 3.0 11.0 0.00 0.00 0.00 70 1008.8
20260506001513 61 204 3.0 12.0 0.00 0.00 0.00 68 1008.6
20260506000008 61 211 3.0 13.0 0.00 0.00 0.00 67 1008.1
20260505234513 62 200 3.0 14.0 0.00 0.00 0.00 66 1007.8
20260505233007 63 141 5.0 18.0 0.00 0.00 0.00 65 1007.7
20260505231507 64 150 5.0 22.0 0.00 0.00 0.00 64 1007.6
20260505230010 64 180 5.0 16.0 0.00 0.00 0.00 62 1007.0
20260505224505 66 131 6.0 18.0 0.00 0.00 0.00 59 1006.8
20260505223005 67 236 2.0 16.0 0.00 0.00 0.00 57 1006.9